Location: Cleburne
(37.9359°N, 89.0537°W)
Time: 19:37:39
(UTC+00:00)

Daily predictions for brighter satellites

Satellite Brightness Start Highest point End
(mag) Time Altitude Azimuth Time Altitude Azimuth Time Altitude Azimuth
H-2A R/B 2.8 12:02:14 10° NNE 12:05:58 81° ESE 12:09:40 10° S
GPS 2-05 Rocket1 3.0 12:10:37 10° WSW 12:12:49 36° S 12:15:00 10° E
ATLAS 2AS CENTAUR R/B 4.0 12:06:50 10° NNW 12:13:55 42° NE 12:20:26 10° ESE
